Weather History for Defiance, OH

Change the Weather History Date:

Saturday, July 27, 2013

  Actual Average Record
Temperature  
Mean Temperature 68 °F -  
Max Temperature 79 °F 84 °F 101 °F (1941)
Min Temperature 54 °F 61 °F 47 °F (1962)
Cooling Degree Days 3    
Growing Degree Days 18 (Base 50)    
Moisture  
Dew Point 61 °F    
Average Humidity 79    
Maximum Humidity 90    
Minimum Humidity 45    
Precipitation  
Precipitation 0.04 in - - ()
Sea Level Pressure  
Sea Level Pressure 29.85 in    
Wind  
Wind Speed 7 mph (SSW)    
Max Wind Speed 15 mph    
Max Gust Speed 22 mph    
Visibility 8 miles    
Events Rain , Thunderstorm    
Averages and records for this station are not official NWS values.
T = Trace of Precipitation, MM = Missing Value Source: NWS Daily Summary

Daily Weather History Graph

Daily Weather History Graph

Search for Another Location

Airport:

Trip Planner

Search our weather history database for the weather conditions in past years. The results will help you decide how hot, cold, wet, or windy it might be!

Date:

Astronomy

Jul. 27, 2013 Rise Set
Actual Time 6:28 AM EDT 8:59 PM EDT
Civil Twilight 5:56 AM EDT 9:31 PM EDT
Nautical Twilight 5:17 AM EDT 10:10 PM EDT
Astronomical Twilight 4:33 AM EDT 10:54 PM EDT
Moon 11:41 PM EDT (7/27) 12:12 PM EDT (7/27)
Length of Visible Light 15h 34m
Length of Day
14h 31m
Waning Gibbous, 71% of the Moon is Illuminated
Jul 27
Waning Gibbous
Jul 29
Last Quarter
Aug 6
New
Aug 14
First Quarter
Aug 20
Full

Hourly Weather History & Observations

Time (EDT) Temp. Dew Point Humidity Pressure Visibility Wind Dir Wind Speed Gust Speed Precip Events Conditions
12:53 AM 71.1 °F 57.9 °F 63% 29.93 in 10.0 mi SSW 10.4 mph - N/A   Overcast
1:53 AM 66.0 °F 62.1 °F 87% 29.92 in 7.0 mi South 5.8 mph - 0.00 in Rain Light Rain
2:53 AM 66.0 °F 62.1 °F 87% 29.89 in 10.0 mi South 4.6 mph - 0.00 in   Overcast
3:28 AM 66.2 °F 62.6 °F 88% 29.90 in 10.0 mi South 5.8 mph - N/A   Overcast
3:53 AM 66.9 °F 62.1 °F 84% 29.88 in 10.0 mi South 6.9 mph - N/A   Overcast
4:53 AM 66.0 °F 62.1 °F 87% 29.87 in 10.0 mi South 8.1 mph - N/A   Overcast
5:53 AM 66.0 °F 62.1 °F 87% 29.87 in 8.0 mi SSW 6.9 mph - 0.00 in Rain Light Rain
6:02 AM 66.2 °F 62.6 °F 88% 29.88 in 8.0 mi SSW 4.6 mph - 0.00 in   Overcast
6:15 AM 66.2 °F 62.6 °F 88% 29.88 in 8.0 mi South 4.6 mph - 0.00 in   Overcast
6:48 AM 66.2 °F 62.6 °F 88% 29.88 in 6.0 mi South 4.6 mph - 0.00 in   Overcast
6:53 AM 66.0 °F 62.1 °F 87% 29.87 in 6.0 mi SSW 4.6 mph - 0.00 in   Overcast
7:06 AM 66.2 °F 62.6 °F 88% 29.88 in 6.0 mi South 5.8 mph - N/A   Overcast
7:13 AM 66.2 °F 62.6 °F 88% 29.88 in 6.0 mi South 5.8 mph - N/A   Overcast
7:46 AM 66.2 °F 62.6 °F 88% 29.88 in 7.0 mi South 8.1 mph - N/A   Overcast
7:53 AM 66.0 °F 63.0 °F 90% 29.87 in 6.0 mi South 5.8 mph - 0.00 in Rain Light Rain
8:53 AM 66.9 °F 64.0 °F 90% 29.87 in 6.0 mi South 5.8 mph - 0.01 in   Overcast
9:53 AM 68.0 °F 64.0 °F 87% 29.85 in 6.0 mi SSW 4.6 mph - 0.00 in   Overcast
10:53 AM 70.0 °F 64.9 °F 84% 29.83 in 6.0 mi SSW 5.8 mph - N/A   Haze
11:06 AM 69.8 °F 64.4 °F 83% 29.84 in 6.0 mi South 5.8 mph - N/A   Haze
11:22 AM 71.6 °F 64.4 °F 78% 29.84 in 7.0 mi SW 4.6 mph - N/A   Overcast
11:44 AM 71.6 °F 64.4 °F 78% 29.83 in 8.0 mi SSW 8.1 mph - N/A   Mostly Cloudy
11:53 AM 73.0 °F 66.0 °F 79% 29.82 in 9.0 mi South 8.1 mph - N/A   Mostly Cloudy
12:44 PM 75.2 °F 64.4 °F 69% 29.81 in 10.0 mi South 15.0 mph 19.6 mph N/A   Scattered Clouds
12:53 PM 73.9 °F 64.9 °F 73% 29.80 in 10.0 mi South 10.4 mph 18.4 mph N/A   Scattered Clouds
1:53 PM 73.9 °F 63.0 °F 68% 29.78 in 10.0 mi Variable 5.8 mph - N/A   Overcast
2:53 PM 79.0 °F 57.9 °F 48% 29.77 in 10.0 mi SW 12.7 mph 21.9 mph N/A   Scattered Clouds
3:53 PM 79.0 °F 55.9 °F 45% 29.77 in 10.0 mi West 9.2 mph - N/A   Mostly Cloudy
4:53 PM 73.0 °F 57.9 °F 59% 29.78 in 10.0 mi WNW 8.1 mph - N/A   Scattered Clouds
5:03 PM 73.4 °F 57.2 °F 57% 29.78 in 10.0 mi WNW 10.4 mph 16.1 mph N/A Thunderstorm Scattered Clouds
5:41 PM 66.2 °F 62.6 °F 88% 29.80 in 10.0 mi Calm Calm - 0.03 in Rain Light Rain
5:53 PM 70.0 °F 63.0 °F 78% 29.80 in 10.0 mi West 3.5 mph - 0.03 in   Mostly Cloudy
6:53 PM 68.0 °F 57.9 °F 70% 29.83 in 10.0 mi NW 8.1 mph 18.4 mph 0.00 in   Overcast
7:53 PM 64.9 °F 55.0 °F 70% 29.86 in 10.0 mi NW 12.7 mph - N/A   Mostly Cloudy
8:53 PM 62.1 °F 52.0 °F 70% 29.87 in 10.0 mi NW 9.2 mph - N/A   Mostly Cloudy
9:53 PM 60.1 °F 52.0 °F 75% 29.90 in 10.0 mi Variable 3.5 mph - N/A   Partly Cloudy
10:53 PM 57.9 °F 51.1 °F 78% 29.91 in 10.0 mi Calm Calm - N/A   Clear
11:53 PM 54.0 °F 51.1 °F 90% 29.91 in 10.0 mi Calm Calm - N/A   Clear